Weather History for Wichita Jabara, KS

Change the Weather History Date:

Saturday, March 1, 2014

  Actual Average (KICT) Record (KICT)
Temperature  
Mean Temperature 22 °F 42 °F  
Max Temperature 33 °F 53 °F 83 °F (2006)
Min Temperature 9 °F 31 °F 5 °F (1980)
Degree Days  
Heating Degree Days 44 23  
Month to date heating degree days 23  
Since 1 July heating degree days 3663  
Cooling Degree Days 0 0  
Month to date cooling degree days 0  
Year to date cooling degree days 0  
Moisture  
Dew Point 16 °F    
Average Humidity 89    
Maximum Humidity 96    
Minimum Humidity 66    
Precipitation  
Precipitation 0.00 in 0.06 in 0.78 in (1953)
Month to date precipitation 0.06  
Year to date precipitation 2.07  
Snow  
Snow 0.00 in 0.10 in 3.80 in (1927)
Month to date snowfall 0.1  
Since 1 July snowfall 12.5  
Snow Depth -    
Sea Level Pressure  
Sea Level Pressure 30.19 in    
Wind  
Wind Speed 16 mph (NNE)    
Max Wind Speed 22 mph    
Max Gust Speed 31 mph    
Visibility 3 miles    
Events Rain , Snow    
T = Trace of Precipitation, MM = Missing Value Source: NWS Daily Summary

Daily Weather History Graph

Daily Weather History Graph

Search for Another Location

Airport:

Trip Planner

Search our weather history database for the weather conditions in past years. The results will help you decide how hot, cold, wet, or windy it might be!

Date:

Astronomy

Mar. 01, 2014 Rise Set
Actual Time 7:00 AM CST 6:22 PM CST
Civil Twilight 6:34 AM CST 6:48 PM CST
Nautical Twilight 6:03 AM CST 7:19 PM CST
Astronomical Twilight 5:33 AM CST 7:49 PM CST
Moon 6:55 AM CST (3/1) 7:09 PM CST (3/1)
Length of Visible Light 12h 14m
Length of Day
11h 22m
New Moon, 0% of the Moon is Illuminated
Mar 1
New Moon
Mar 8
First Quarter
Mar 16
Full
Mar 23
Last Quarter
Mar 30
New

Hourly Weather History & Observations

Time (CST) Temp. Windchill Dew Point Humidity Pressure Visibility Wind Dir Wind Speed Gust Speed Precip Events Conditions
12:54 AM 33.1 °F 23.0 °F 23.0 °F 66% 30.02 in 10.0 mi North 15.0 mph - N/A   Overcast
1:54 AM 30.0 °F 20.5 °F 23.0 °F 75% 30.06 in 10.0 mi North 11.5 mph - N/A   Overcast
2:54 AM 28.9 °F 18.2 °F 21.9 °F 75% 30.07 in 10.0 mi North 13.8 mph - N/A   Overcast
3:54 AM 27.0 °F 14.3 °F 21.0 °F 78% 30.09 in 10.0 mi North 17.3 mph - N/A   Overcast
4:54 AM 25.0 °F 12.2 °F 19.9 °F 81% 30.14 in 10.0 mi North 16.1 mph - N/A   Overcast
5:54 AM 24.1 °F 10.6 °F 21.0 °F 88% 30.15 in 4.0 mi NNE 17.3 mph 23.0 mph N/A   Overcast
6:54 AM 23.0 °F 10.1 °F 21.0 °F 92% 30.13 in 4.0 mi NNE 15.0 mph - N/A   Overcast
7:33 AM 23.0 °F 10.6 °F 21.0 °F 92% 30.10 in 2.5 mi NNE 13.8 mph - N/A   Overcast
7:54 AM 23.0 °F 10.6 °F 21.0 °F 92% 30.14 in 2.5 mi NE 13.8 mph - N/A   Overcast
8:36 AM 23.0 °F 10.1 °F 19.9 °F 88% 30.12 in 4.0 mi NE 15.0 mph - N/A   Overcast
8:54 AM 23.0 °F 10.1 °F 21.0 °F 92% 30.17 in 5.0 mi NE 15.0 mph - N/A   Overcast
9:54 AM 23.0 °F 10.1 °F 21.0 °F 92% 30.20 in 2.0 mi NE 15.0 mph - N/A   Overcast
10:11 AM 23.0 °F 9.6 °F 21.9 °F 96% 30.15 in 1.8 mi NE 16.1 mph 21.9 mph N/A   Overcast
10:54 AM 24.1 °F 11.0 °F 21.9 °F 91% 30.18 in 1.8 mi NE 16.1 mph - N/A   Overcast
11:10 AM 24.1 °F 10.6 °F 21.9 °F 91% 30.14 in 2.0 mi NE 17.3 mph 24.2 mph N/A   Overcast
11:19 AM 24.1 °F 13.1 °F 21.9 °F 91% 30.15 in 1.8 mi NE 11.5 mph 24.2 mph N/A   Overcast
11:54 AM 24.1 °F 11.5 °F 21.9 °F 91% 30.21 in 1.2 mi NNE 15.0 mph 23.0 mph 0.00 in Rain Light Freezing Rain
12:43 PM 24.1 °F 11.5 °F 21.9 °F 91% 30.14 in 1.5 mi NE 15.0 mph - 0.00 in   Overcast
12:54 PM 24.1 °F 10.1 °F 21.9 °F 91% 30.19 in 1.5 mi NNE 18.4 mph - 0.00 in   Overcast
1:17 PM 23.0 °F 8.7 °F 21.0 °F 92% 30.13 in 1.8 mi NNE 18.4 mph 24.2 mph 0.00 in Rain Light Freezing Rain
1:35 PM 21.9 °F 6.9 °F 21.0 °F 96% 30.13 in 2.0 mi NNE 19.6 mph 25.3 mph 0.00 in   Overcast
1:54 PM 21.9 °F 8.2 °F 21.0 °F 96% 30.17 in 2.0 mi NNE 16.1 mph - 0.00 in   Overcast
2:08 PM 21.0 °F 6.2 °F 19.9 °F 96% 30.11 in 1.8 mi NNE 18.4 mph - N/A   Overcast
2:36 PM 19.9 °F 3.9 °F 19.0 °F 96% 30.11 in 1.8 mi NNE 20.7 mph 24.2 mph 0.00 in Rain Light Freezing Rain
2:54 PM 19.9 °F 4.3 °F 19.0 °F 96% 30.17 in 1.8 mi NNE 19.6 mph 25.3 mph 0.00 in Rain Light Freezing Rain
3:11 PM 19.9 °F 4.8 °F 18.0 °F 92% 30.12 in 2.0 mi NE 18.4 mph 25.3 mph 0.00 in Rain Light Freezing Rain
3:21 PM 19.9 °F 4.8 °F 18.0 °F 92% 30.11 in 2.0 mi NNE 18.4 mph 26.5 mph 0.00 in   Overcast
3:41 PM 19.0 °F 3.6 °F 17.1 °F 92% 30.12 in 2.0 mi NNE 18.4 mph - 0.00 in Rain Light Freezing Rain
3:54 PM 19.0 °F 3.6 °F 17.1 °F 92% 30.17 in 2.0 mi NNE 18.4 mph - 0.00 in Rain Light Freezing Rain
4:07 PM 18.0 °F 2.2 °F 16.0 °F 92% 30.11 in 1.8 mi NNE 18.4 mph 26.5 mph 0.00 in Rain Light Freezing Rain
4:54 PM 17.1 °F 2.0 °F 15.1 °F 92% 30.19 in 1.8 mi NNE 16.1 mph 27.6 mph 0.00 in   Overcast
5:54 PM 16.0 °F -0.9 °F 14.0 °F 92% 30.22 in 1.0 mi NNE 19.6 mph 25.3 mph 0.00 in Snow Light Snow
6:37 PM 14.0 °F -2.0 °F 12.0 °F 92% 30.18 in 2.0 mi North 16.1 mph 27.6 mph 0.00 in Snow Light Snow
6:44 PM 14.0 °F -3.0 °F 12.0 °F 92% 30.18 in 1.8 mi NNE 18.4 mph 25.3 mph 0.00 in Snow Light Snow
6:54 PM 14.0 °F -2.5 °F 12.0 °F 92% 30.25 in 1.2 mi NNE 17.3 mph 25.3 mph 0.00 in Snow Light Snow
7:06 PM 14.0 °F -3.0 °F 10.9 °F 88% 30.19 in 1.5 mi North 18.4 mph 27.6 mph 0.00 in Snow Light Snow
7:24 PM 12.9 °F -4.9 °F 10.0 °F 88% 30.21 in 2.5 mi NNE 19.6 mph 28.8 mph 0.00 in Snow Light Snow
7:33 PM 12.9 °F -4.4 °F 10.9 °F 92% 30.21 in 1.8 mi North 18.4 mph - 0.00 in Snow Light Snow
7:39 PM 12.9 °F -3.9 °F 10.0 °F 88% 30.22 in 2.0 mi North 17.3 mph 29.9 mph 0.00 in Snow Light Snow
7:54 PM 12.9 °F -5.7 °F 10.0 °F 88% 30.31 in 3.0 mi North 21.9 mph 27.6 mph 0.00 in Snow Light Snow
8:10 PM 12.9 °F -5.7 °F 9.0 °F 84% 30.24 in 2.0 mi North 21.9 mph 27.6 mph 0.00 in Snow Light Snow
8:20 PM 12.0 °F -6.5 °F 9.0 °F 88% 30.26 in 2.0 mi North 20.7 mph 27.6 mph 0.00 in Snow Light Snow
8:35 PM 12.0 °F -6.5 °F 9.0 °F 88% 30.27 in 4.0 mi North 20.7 mph 31.1 mph 0.00 in Snow Light Snow
8:54 PM 12.0 °F -5.6 °F 8.1 °F 84% 30.33 in 4.0 mi NNE 18.4 mph - 0.00 in Snow Light Snow
9:18 PM 12.0 °F -6.0 °F 8.1 °F 84% 30.26 in 2.5 mi North 19.6 mph - 0.00 in Snow Light Snow
9:54 PM 12.0 °F -6.5 °F 8.1 °F 84% 30.33 in 4.0 mi NNE 20.7 mph 25.3 mph 0.00 in Snow Light Snow
10:12 PM 12.0 °F -4.0 °F 8.1 °F 84% 30.27 in 5.0 mi North 15.0 mph 24.2 mph 0.00 in Snow Light Snow
10:54 PM 10.9 °F -7.9 °F 7.0 °F 84% 30.38 in 2.5 mi North 20.7 mph 25.3 mph 0.00 in Snow Light Snow
11:11 PM 10.0 °F -8.6 °F 6.1 °F 84% 30.28 in 3.0 mi North 19.6 mph 27.6 mph 0.00 in Snow Light Snow
11:20 PM 10.0 °F -9.1 °F 6.1 °F 84% 30.27 in 2.5 mi North 20.7 mph 26.5 mph 0.00 in Snow Light Snow
11:33 PM 10.0 °F -8.1 °F 7.0 °F 87% 30.27 in 1.5 mi North 18.4 mph - 0.00 in Snow Light Snow
11:54 PM 9.0 °F -10.5 °F 5.0 °F 84% 30.35 in 2.5 mi NNE 20.7 mph 29.9 mph 0.00 in Snow Light Snow